User: anonymous   Login
Location: La Comballaz
(46.3780°N, 7.0817°E)
Time: 04:35:21
(UTC+00:00)
Language:

Envisat - Orbit

View from above orbital plane
View from above orbital plane
View from above satellite
View from above satellite

Ground track
Ground track

The orbit data is extracted from the following two-line orbital elements,

1 27386U 02009A   22016.91096944  .00000106  00000-0  48472-4 0  9996
2 27386  98.1677   5.2640 0001198  86.2015 306.3666 14.38068963 41759
Epoch (UTC): 16 January 2022 21:51:47
Eccentricity: 0.0001198
inclination: 98.1677°
perigee height: 764 km
apogee height: 766 km
right ascension of ascending node: 5.2640°
argument of perigee: 86.2015°
revolutions per day: 14.38068963
mean anomaly at epoch: 306.3666°
orbit number at epoch: 4175

The dashed part of the orbit path shows where the satellite is in the earth's shadow,  

DLR